| time (UTC) | temp F | wind direction | speed MPH | gust MPH | rain 1hr in | rain 24hr in | rain mn in | humidity % | barometer mb |
| 20260906183323 | 75 | 94 | 2.0 | 8.0 | 0.00 | 0.00 | 0.00 | 74 | 1021.2 |
| 20260906181816 | 74 | 167 | 4.0 | 8.0 | 0.00 | 0.00 | 0.00 | 76 | 1021.3 |
| 20260906180313 | 75 | 110 | 4.0 | 10.0 | 0.00 | 0.00 | 0.00 | 75 | 1021.4 |
| 20260906174823 | 75 | 137 | 3.0 | 5.0 | 0.00 | 0.00 | 0.00 | 76 | 1021.5 |
| 20260906173321 | 75 | 108 | 1.0 | 7.0 | 0.00 | 0.00 | 0.00 | 75 | 1021.5 |
| 20260906171833 | 73 | 143 | 3.0 | 8.0 | 0.00 | 0.00 | 0.00 | 75 | 1021.4 |
| 20260906170328 | 74 | 103 | 3.0 | 7.0 | 0.00 | 0.00 | 0.00 | 75 | 1021.5 |
| 20260906164841 | 73 | 120 | 2.0 | 11.0 | 0.00 | 0.00 | 0.00 | 77 | 1021.4 |
| 20260906163332 | 72 | 140 | 3.0 | 6.0 | 0.00 | 0.00 | 0.00 | 78 | 1021.6 |
| 20260906161831 | 71 | 129 | 2.0 | 6.0 | 0.00 | 0.00 | 0.00 | 80 | 1021.6 |
| 20260906160326 | 71 | 114 | 3.0 | 6.0 | 0.00 | 0.00 | 0.00 | 80 | 1021.6 |
| 20260906154815 | 70 | 126 | 1.0 | 6.0 | 0.00 | 0.00 | 0.00 | 80 | 1021.6 |
| 20260906153328 | 69 | 110 | 4.0 | 6.0 | 0.00 | 0.00 | 0.00 | 80 | 1021.6 |
| 20260906151840 | 69 | 101 | 4.0 | 7.0 | 0.00 | 0.00 | 0.00 | 80 | 1021.7 |
| 20260906150316 | 68 | 116 | 3.0 | 6.0 | 0.00 | 0.00 | 0.00 | 79 | 1021.8 |
| 20260906144823 | 68 | 141 | 2.0 | 3.0 | 0.00 | 0.00 | 0.00 | 82 | 1021.6 |
| 20260906143321 | 67 | 114 | 2.0 | 5.0 | 0.00 | 0.00 | 0.00 | 82 | 1021.5 |
| 20260906141815 | 65 | 101 | 2.0 | 4.0 | 0.00 | 0.00 | 0.00 | 84 | 1021.6 |
| 20260906140328 | 63 | 105 | 2.0 | 4.0 | 0.00 | 0.00 | 0.00 | 85 | 1022.0 |
| 20260906134819 | 63 | 114 | 2.0 | 3.0 | 0.00 | 0.00 | 0.00 | 91 | 1022.0 |
| 20260906133314 | 61 | 96 | 2.0 | 4.0 | 0.00 | 0.00 | 0.00 | 97 | 1022.0 |
| 20260906131853 | 61 | 86 | 2.0 | 4.0 | 0.00 | 0.00 | 0.00 | 99 | 1021.9 |
| 20260906130327 | 60 | 121 | 1.0 | 4.0 | 0.00 | 0.00 | 0.00 | 99 | 1021.7 |
| 20260906124820 | 60 | 91 | 1.0 | 3.0 | 0.00 | 0.00 | 0.00 | 99 | 1021.5 |
| 20260906123338 | 60 | 100 | 0.0 | 2.0 | 0.00 | 0.00 | 0.00 | 99 | 1021.6 |
| 20260906121815 | 59 | 95 | 0.0 | 1.0 | 0.00 | 0.00 | 0.00 | 99 | 1021.5 |
| 20260906120320 | 59 | 103 | 0.0 | 1.0 | 0.00 | 0.00 | 0.00 | 99 | 1021.4 |
| 20260906114813 | 59 | 84 | 0.0 | 3.0 | 0.00 | 0.00 | 0.00 | 99 | 1021.2 |
| 20260906113313 | 59 | 109 | 0.0 | 0.0 | 0.00 | 0.00 | 0.00 | 99 | 1021.2 |
| 20260906111831 | 58 | 109 | 0.0 | 1.0 | 0.00 | 0.00 | 0.00 | 99 | 1021.1 |
| 20260906110329 | 59 | 89 | 0.0 | 1.0 | 0.00 | 0.00 | 0.00 | 99 | 1021.0 |
| 20260906104817 | 59 | 94 | 0.0 | 2.0 | 0.00 | 0.00 | 0.00 | 99 | 1020.9 |
| 20260906103314 | 60 | 115 | 0.0 | 1.0 | 0.00 | 0.00 | 0.00 | 99 | 1020.9 |
| 20260906101830 | 60 | 109 | 0.0 | 1.0 | 0.00 | 0.00 | 0.00 | 99 | 1020.9 |
| 20260906100323 | 60 | 128 | 0.0 | 1.0 | 0.00 | 0.00 | 0.00 | 99 | 1020.8 |
| 20260906094819 | 59 | 138 | 0.0 | 1.0 | 0.00 | 0.00 | 0.00 | 99 | 1020.9 |
| 20260906093335 | 58 | 90 | 0.0 | 0.0 | 0.00 | 0.00 | 0.00 | 98 | 1020.8 |
| 20260906091833 | 58 | 127 | 0.0 | 0.0 | 0.00 | 0.00 | 0.00 | 98 | 1020.8 |
| 20260906090328 | 58 | 131 | 0.0 | 0.0 | 0.00 | 0.00 | 0.00 | 98 | 1020.8 |
| 20260906084837 | 57 | 131 | 0.0 | 0.0 | 0.00 | 0.00 | 0.00 | 97 | 1020.9 |
| 20260906083354 | 57 | 131 | 0.0 | 0.0 | 0.00 | 0.00 | 0.00 | 97 | 1020.8 |
| 20260906081830 | 58 | 131 | 0.0 | 0.0 | 0.00 | 0.00 | 0.00 | 97 | 1020.7 |
| 20260906080314 | 58 | 131 | 0.0 | 0.0 | 0.00 | 0.00 | 0.00 | 97 | 1020.5 |
| 20260906074826 | 57 | 131 | 0.0 | 0.0 | 0.00 | 0.00 | 0.00 | 96 | 1020.5 |
| 20260906073324 | 56 | 131 | 0.0 | 0.0 | 0.00 | 0.00 | 0.00 | 96 | 1020.6 |
| 20260906071836 | 56 | 130 | 0.0 | 0.0 | 0.00 | 0.00 | 0.00 | 97 | 1020.6 |
| 20260906070330 | 56 | 130 | 0.0 | 0.0 | 0.00 | 0.00 | 0.00 | 96 | 1020.6 |
| 20260906064823 | 56 | 130 | 0.0 | 0.0 | 0.00 | 0.00 | 0.00 | 96 | 1020.6 |
| 20260906063316 | 57 | 131 | 0.0 | 0.0 | 0.00 | 0.00 | 0.00 | 96 | 1020.5 |
| 20260906061814 | 57 | 131 | 0.0 | 0.0 | 0.00 | 0.00 | 0.00 | 95 | 1020.5 |
| 20260906060349 | 58 | 131 | 0.0 | 0.0 | 0.00 | 0.00 | 0.00 | 95 | 1020.4 |
| 20260906054819 | 58 | 131 | 0.0 | 0.0 | 0.00 | 0.00 | 0.00 | 95 | 1020.3 |
| 20260906053318 | 59 | 130 | 0.0 | 0.0 | 0.00 | 0.00 | 0.00 | 95 | 1020.2 |
| 20260906051832 | 60 | 130 | 0.0 | 0.0 | 0.00 | 0.00 | 0.00 | 95 | 1020.1 |
| 20260906050330 | 61 | 131 | 0.0 | 1.0 | 0.00 | 0.00 | 0.00 | 94 | 1020.2 |
| 20260906044841 | 61 | 131 | 0.0 | 1.0 | 0.00 | 0.00 | 0.00 | 95 | 1020.1 |
| 20260906043317 | 61 | 130 | 0.0 | 1.0 | 0.00 | 0.00 | 0.00 | 97 | 1020.0 |
| 20260906041813 | 61 | 134 | 0.0 | 0.0 | 0.00 | 0.00 | 0.00 | 98 | 1020.1 |
| 20260906040327 | 61 | 129 | 0.0 | 1.0 | 0.00 | 0.00 | 0.00 | 98 | 1020.0 |
| 20260906034821 | 61 | 121 | 0.0 | 2.0 | 0.00 | 0.00 | 0.00 | 98 | 1020.0 |
| 20260906033336 | 61 | 113 | 0.0 | 1.0 | 0.00 | 0.00 | 0.00 | 97 | 1019.8 |
| 20260906031814 | 61 | 128 | 0.0 | 2.0 | 0.00 | 0.00 | 0.00 | 97 | 1019.8 |
| 20260906030326 | 61 | 104 | 0.0 | 1.0 | 0.00 | 0.00 | 0.00 | 96 | 1019.8 |
| 20260906024821 | 61 | 89 | 0.0 | 2.0 | 0.00 | 0.00 | 0.00 | 95 | 1019.8 |
| 20260906023314 | 62 | 104 | 1.0 | 2.0 | 0.00 | 0.00 | 0.00 | 93 | 1019.7 |
| 20260906021829 | 62 | 91 | 1.0 | 2.0 | 0.00 | 0.00 | 0.00 | 92 | 1019.6 |
| 20260906020325 | 62 | 83 | 0.0 | 1.0 | 0.00 | 0.00 | 0.00 | 90 | 1019.7 |
| 20260906014851 | 62 | 85 | 1.0 | 2.0 | 0.00 | 0.00 | 0.00 | 89 | 1019.7 |
| 20260906013328 | 63 | 98 | 1.0 | 3.0 | 0.00 | 0.00 | 0.00 | 87 | 1019.6 |
| 20260906011820 | 63 | 108 | 1.0 | 2.0 | 0.00 | 0.00 | 0.00 | 87 | 1019.5 |
| 20260906010352 | 63 | 113 | 1.0 | 2.0 | 0.00 | 0.00 | 0.00 | 87 | 1019.4 |
| 20260906004824 | 64 | 130 | 0.0 | 1.0 | 0.00 | 0.00 | 0.00 | 85 | 1019.5 |
| 20260906003319 | 65 | 130 | 0.0 | 1.0 | 0.00 | 0.00 | 0.00 | 84 | 1019.4 |
| 20260906001816 | 66 | 122 | 0.0 | 1.0 | 0.00 | 0.00 | 0.00 | 82 | 1019.4 |
| 20260906000328 | 67 | 128 | 0.0 | 2.0 | 0.00 | 0.00 | 0.00 | 80 | 1019.5 |
| 20260905234816 | 68 | 102 | 1.0 | 4.0 | 0.00 | 0.00 | 0.00 | 78 | 1019.4 |
| 20260905233316 | 69 | 109 | 2.0 | 4.0 | 0.00 | 0.00 | 0.00 | 77 | 1019.3 |
| 20260905231830 | 70 | 103 | 2.0 | 6.0 | 0.00 | 0.00 | 0.00 | 75 | 1019.6 |
| 20260905230350 | 71 | 83 | 3.0 | 5.0 | 0.00 | 0.00 | 0.00 | 73 | 1019.6 |
| 20260905224820 | 72 | 106 | 2.0 | 5.0 | 0.00 | 0.00 | 0.00 | 71 | 1019.6 |
| 20260905223326 | 72 | 152 | 3.0 | 6.0 | 0.00 | 0.00 | 0.00 | 69 | 1019.6 |
| 20260905221826 | 73 | 96 | 2.0 | 5.0 | 0.00 | 0.00 | 0.00 | 68 | 1019.5 |
| 20260905220329 | 73 | 148 | 2.0 | 7.0 | 0.00 | 0.00 | 0.00 | 68 | 1019.4 |
| 20260905214820 | 74 | 173 | 3.0 | 6.0 | 0.00 | 0.00 | 0.00 | 68 | 1019.6 |
| 20260905213332 | 74 | 166 | 2.0 | 6.0 | 0.00 | 0.00 | 0.00 | 67 | 1019.3 |
| 20260905211831 | 73 | 83 | 5.0 | 8.0 | 0.00 | 0.00 | 0.00 | 65 | 1019.4 |
| 20260905210331 | 73 | 73 | 2.0 | 9.0 | 0.00 | 0.00 | 0.00 | 67 | 1019.4 |
| 20260905204825 | 73 | 157 | 2.0 | 9.0 | 0.00 | 0.00 | 0.00 | 66 | 1019.6 |
| 20260905203317 | 73 | 77 | 3.0 | 8.0 | 0.00 | 0.00 | 0.00 | 67 | 1019.7 |
| 20260905201814 | 73 | 86 | 2.0 | 8.0 | 0.00 | 0.00 | 0.00 | 68 | 1019.7 |
| 20260905200330 | 73 | 127 | 4.0 | 10.0 | 0.00 | 0.00 | 0.00 | 67 | 1019.6 |
| 20260905194841 | 73 | 122 | 4.0 | 9.0 | 0.00 | 0.00 | 0.00 | 66 | 1019.5 |
| 20260905193345 | 73 | 118 | 3.0 | 7.0 | 0.00 | 0.00 | 0.00 | 67 | 1019.7 |
| 20260905191821 | 73 | 161 | 4.0 | 8.0 | 0.00 | 0.00 | 0.00 | 66 | 1019.9 |
| 20260905190341 | 73 | 84 | 3.0 | 7.0 | 0.00 | 0.00 | 0.00 | 69 | 1019.8 |
| 20260905184832 | 73 | 82 | 5.0 | 9.0 | 0.00 | 0.00 | 0.00 | 70 | 1019.7 |